Regional Weather Roundup
Issued by NWS

Home | Current Version | Previous Version | Text Only | Print | Product List | Glossary On
Versions: 1 2 3 4 5 6 7 8 9 10 11 12 13 14 15 16 17 18 19 20 21 22 23 24 25 26 27 28 29 30 31 32 33 34 35 36 37 38 39 40 41 42 43 44 45 46 47 48 49 50
000
ASUS43 KDTX 101310
RWRMI
MICHIGAN HOURLY REGIONAL WEATHER ROUNDUP
NATIONAL WEATHER SERVICE DETROIT/PONTIAC MI
ISSUED BY NATIONAL WEATHER SERVICE GRAND RAPIDS MI
800 AM EST SUN DEC 10 2017

NOTE: "FAIR" INDICATES FEW OR NO CLOUDS BELOW 12,000 FEET WITH NO
SIGNIFICANT WEATHER AND/OR OBSTRUCTION TO VISIBILITY.

MIZ047>049-052>055-059>063-066>070-074>076-081>083-101400-
SOUTHEAST LOWER MICHIGAN

CITY           SKY/WX    TMP DP  RH WIND       PRES   REMARKS
ADRIAN         CLOUDY    23  17  78 W9        29.97R WCI  13
ALMA           FLURRIES  25  21  85 SW7       29.87F WCI  17
ANN ARBOR      CLOUDY    25  19  78 SW10      29.93R WCI  15
BAD AXE        FLURRIES  23  18  83 W10G17    29.86S WCI  12
DETROIT CITY   CLOUDY    26  21  81 SW10      29.94S WCI  16
DETROIT        CLOUDY    27  22  81 SW14      29.95S WCI  16
FLINT          LGT SNOW  25  19  78 W10       29.90S WCI  15
GROSSE ILE     CLOUDY    27  23  84 W10       29.95R WCI  17
HILLSDALE      CLOUDY    21  14  73 SW10G16   29.93R WCI  10
HOWELL         LGT SNOW  25  21  85 SW8       29.90S WCI  17

CITY           SKY/WX    TMP DP  RH WIND       PRES   REMARKS
JACKSON        CLOUDY    25  17  72 SW15      29.92S WCI  13
LANSING        CLOUDY    25  19  78 SW12      29.90F WCI  14
MASON          FLURRIES  26  18  70 SW8       29.91S WCI  18
MONROE         CLOUDY    27  22  82 SW10      29.95S WCI  17
MT. CLEMENS    CLOUDY    26  22  86 SW12      29.90F WCI  15
PONTIAC        FLURRIES  25  22  88 SW10      29.89S WCI  15
PORT HOPE        N/A     23  20  88 VRB5      29.83F WCI  17
PORT HURON     CLOUDY    25  18  74 SW6       29.91S WCI  18
TRI CITIES     FLURRIES  24  20  84 SW12      29.88S WCI  13
YPSILANTI      CLOUDY    28  22  78 SW15      29.94S WCI  16
$$
MIZ043>046-050>051-056>058-064>065-071>073-077>080-101400-
SOUTHWEST LOWER MICHIGAN

CITY           SKY/WX    TMP DP  RH WIND       PRES   REMARKS
BATTLE CREEK   CLOUDY    23  17  78 SW14      29.93S WCI  11
BENTON HARBOR  CLOUDY    22  14  71 S13       29.95S WCI  10
BIG RAPIDS     CLOUDY    22  17  83 W8        29.84S WCI  12
COLDWATER      CLOUDY    21  15  77 SW8       29.96S WCI  11
HOLLAND        CLOUDY    28  20  71 SW8       29.90F WCI  20
GRAND RAPIDS   CLOUDY    26  21  81 SW12      29.88F WCI  16
KALAMAZOO      CLOUDY    22  15  75 SW16G22   29.93F WCI   8
MARSHALL       CLOUDY    22  16  77 SW12G17   29.93S WCI  11
MOUNT PLEASANT FLURRIES  24  18  77 W5        29.86S WCI  18
MUSKEGON       CLOUDY    28  19  69 SW13      29.88F WCI  17
STURGIS        CLOUDY    19  14  80 SW9       29.96S WCI   8
$$
MIZ016>042-101400-
NORTHERN LOWER MICHIGAN

CITY           SKY/WX    TMP DP  RH WIND       PRES   REMARKS
ALPENA         CLOUDY    23  16  74 SW7       29.78S WCI  15
BEAVER ISLAND  CLOUDY    23  18  80 W8        29.78S WCI  14
BELLAIRE       FLURRIES  24  21  89 SW6       29.81F WCI  17
CADILLAC       CLOUDY    19  16  88 SW8       29.79S WCI   9
CHARLEVOIX     CLOUDY    27  21  79 W16G23    29.80F WCI  14
GAYLORD        LGT SNOW  18  14  84 SW10      29.74F FOG     WCI   6
HOUGHTON LAKE  FLURRIES  20  15  81 SW9       29.81S WCI   9
MANISTEE       CLOUDY    25  19  78 W8        29.84S WCI  16
OSCODA         CLOUDY    22  16  75 SW10      29.82S WCI  12
PELLSTON       CLOUDY    24  16  71 W9        29.76S WCI  14
TRAVERSE CITY  CLOUDY    23  18  81 SW6       29.81F WCI  16
LUDINGTON      CLOUDY    26  18  72 W7        29.85S WCI  18
$$
MIZ007>008-015-101400-
EASTERN UPPER MICHIGAN

CITY           SKY/WX    TMP DP  RH WIND       PRES   REMARKS
KINROSS        CLOUDY    18  11  74 W9        29.72S WCI   7
MACKINAC ISLAN CLOUDY    25  15  67 W16G25    29.73F WCI  12
NEWBERRY       CLOUDY    15  13  92 SW13      29.72S WCI   1
S. S. MARIE    LGT SNOW  19  15  84 W10       29.69F VSB 1   WCI   7
$$
MIZ004>006-011>014-085-101400-
CENTRAL UPPER MICHIGAN

CITY           SKY/WX    TMP DP  RH WIND       PRES   REMARKS
MANISTIQUE     CLOUDY    16   8  69 W6        29.78S WCI   8
ESCANABA       FLURRIES  16  11  80 W7        29.82R WCI   6
MENOMINEE      PTCLDY    14  11  87 SW3       29.85S
SAWYER-GWINN   CLOUDY    16  12  86 W6        29.76R WCI   7
$$
MIZ001>003-009>011-084-101400-
WESTERN UPPER MICHIGAN

CITY           SKY/WX    TMP DP  RH WIND       PRES   REMARKS
IRON MOUNTAIN  CLOUDY    16  11  80 NW5       29.77R WCI   9
HOUGHTON       CLOUDY    21  13  71 N10       29.78R WCI  10
COPPER HARBOR    N/A     23  16  74 NE20G30   29.80R WCI   8
IRONWOOD       FLURRIES  18  16  92 W7        29.82R WCI   9
$$

ABBREVIATIONS USED IN REMARKS
   TC - TEMPERATURE IN CELSIUS
  WCI - WIND CHILL INDEX
   HX - HEAT INDEX
  VSB - VISIBILITY





USA.gov is the U.S. government's official web portal to all federal, state and local government web resources and services.